Weather History for Yellowstone, WY

Change the Weather History Date:

Monday, February 25, 2013

  Actual Average Record
Temperature  
Mean Temperature 4 °F 17 °F  
Max Temperature 19 °F 30 °F 41 °F (1999)
Min Temperature -11 °F 4 °F -31 °F (2003)
Degree Days  
Heating Degree Days 61 48  
Month to date heating degree days 1281 1263  
Since 1 July heating degree days 7700 7794  
Cooling Degree Days 0 0  
Month to date cooling degree days 0 0  
Year to date cooling degree days 0 0  
Moisture  
Dew Point 3 °F    
Average Humidity 80    
Maximum Humidity 92    
Minimum Humidity 67    
Precipitation  
Precipitation 0.06 in 0.05 in 0.40 in (2012)
Month to date precipitation 0.81 1.25  
Year to date precipitation 2.23 3.36  
Sea Level Pressure  
Sea Level Pressure 30.23 in    
Wind  
Wind Speed 1 mph (WSW)    
Max Wind Speed 8 mph    
Max Gust Speed 13 mph    
T = Trace of Precipitation, MM = Missing Value Source: NWS Daily Summary

Daily Weather History Graph

Daily Weather History Graph

Search for Another Location

Airport:

Trip Planner

Search our weather history database for the weather conditions in past years. The results will help you decide how hot, cold, wet, or windy it might be!

Date:

Astronomy

Feb. 25, 2013 Rise Set
Actual Time 7:05 AM MST 6:04 PM MST
Civil Twilight 6:35 AM MST 6:34 PM MST
Nautical Twilight 6:02 AM MST 7:07 PM MST
Astronomical Twilight 5:28 AM MST 7:41 PM MST
Moon 6:24 PM MST (2/25) 6:35 AM MST (2/25)
Length of Visible Light 11h 58m
Length of Day
10h 59m
Full, 100% of the Moon is Illuminated
Feb 25
Full
Feb 25
Full
Mar 4
Last Quarter
Mar 11
New
Mar 19
First Quarter

Hourly Weather History & Observations

Time (MST) Temp. Windchill Dew Point Humidity Pressure Visibility Wind Dir Wind Speed Gust Speed Precip Events Conditions
12:56 AM -9.0 °F - -14.1 °F 79% 30.44 in - Calm Calm - N/A   Unknown
1:56 AM -9.0 °F - -14.1 °F 79% 30.42 in - Calm Calm - N/A   Unknown
2:56 AM -4.0 °F - -9.0 °F 79% 30.36 in - Calm Calm - N/A   Unknown
3:56 AM -2.0 °F - -6.0 °F 83% 30.33 in - Calm Calm - N/A   Unknown
4:56 AM -0.0 °F - -4.0 °F 83% 30.32 in - Calm Calm - N/A   Unknown
5:56 AM 1.9 °F - -2.0 °F 83% 30.30 in - Calm Calm - N/A   Unknown
6:56 AM 3.0 °F - -0.9 °F 84% 30.32 in - Calm Calm - N/A   Unknown
7:56 AM 3.9 °F - 1.0 °F 88% 30.35 in - Calm Calm - N/A   Unknown
8:56 AM 8.1 °F - 3.9 °F 83% 30.34 in - Calm Calm - N/A   Unknown
9:56 AM 10.9 °F 4.7 °F 6.1 °F 81% 30.31 in - Variable 3.5 mph - N/A   Unknown
10:56 AM 12.9 °F - 7.0 °F 77% 30.28 in - Calm Calm - N/A   Unknown
11:56 AM 16.0 °F - 8.1 °F 71% 30.26 in - Calm Calm - N/A   Unknown
12:56 PM 17.1 °F - 9.0 °F 71% 30.24 in - Calm Calm - N/A   Unknown
1:56 PM 19.0 °F 12.3 °F 10.0 °F 68% 30.19 in - Variable 4.6 mph - N/A   Unknown
2:56 PM 18.0 °F 9.8 °F 9.0 °F 68% 30.15 in - Variable 5.8 mph - N/A   Unknown
3:56 PM 18.0 °F 7.7 °F 10.0 °F 71% 30.12 in - WSW 8.1 mph - N/A   Unknown
4:56 PM 17.1 °F - 10.9 °F 77% 30.10 in - Calm Calm - 0.01 in   Unknown
5:56 PM 16.0 °F - 10.9 °F 81% 30.11 in - Calm Calm - 0.01 in   Unknown
6:56 PM 15.1 °F 7.7 °F 10.9 °F 84% 30.11 in - Variable 4.6 mph - 0.02 in   Unknown
7:56 PM 14.0 °F - 10.0 °F 84% 30.12 in - Calm Calm - N/A   Unknown
8:56 PM 12.9 °F - 8.1 °F 81% 30.09 in - Calm Calm - 0.01 in   Unknown
9:56 PM 10.9 °F - 8.1 °F 88% 30.09 in - Calm Calm - N/A   Unknown
10:56 PM 8.1 °F - 5.0 °F 87% 30.09 in - Calm Calm - 0.01 in   Unknown
11:56 PM 7.0 °F - 3.9 °F 87% 30.10 in - Calm Calm - N/A   Unknown